This is the latest recevied weather packets stored in our database for station/object K7LER. If no packets are shown the sender has not sent any weather packets the latest 10 day(s).
| Time | Temp. | Humidity | Pressure | Rain* | Wind** | Luminosity | Snow |
|---|---|---|---|---|---|---|---|
| 1777770635 | 21.11° C | 47% | 1012.9 hPa | 0 mm | - | 227 W/m² | - |
| 1777770333 | 21.11° C | 47% | 1012.9 hPa | 0 mm | - | 183 W/m² | - |
| 1777770041 | 21.11° C | 48% | 1012.9 hPa | 0 mm | - | 281 W/m² | - |
| 1777769733 | 21.11° C | 49% | 1013 hPa | 0 mm | - | 336 W/m² | - |
| 1777769433 | 21.11° C | 49% | 1013 hPa | 0 mm | - | 353 W/m² | - |
| 1777769142 | 21.11° C | 50% | 1013 hPa | 0 mm | - | 371 W/m² | - |
| 1777768835 | 21.11° C | 51% | 1013.1 hPa | 0 mm | - | 387 W/m² | - |
| 1777768533 | 21.11° C | 50% | 1013 hPa | 0 mm | - | 390 W/m² | - |
| 1777768243 | 21.11° C | 49% | 1012.9 hPa | 0 mm | - | 376 W/m² | - |
| 1777767933 | 21.11° C | 49% | 1013 hPa | 0 mm | - | 341 W/m² | - |
| 1777767635 | 21.11° C | 50% | 1013 hPa | 0 mm | - | 320 W/m² | - |
| 1777767356 | 21.11° C | 50% | 1013.1 hPa | 0 mm | - | 325 W/m² | - |
| 1777767036 | 21.67° C | 50% | 1013.2 hPa | 0 mm | - | 345 W/m² | - |
| 1777766734 | 21.67° C | 49% | 1013.2 hPa | 0 mm | - | 380 W/m² | - |
| 1777766456 | 21.67° C | 49% | 1013.3 hPa | 0 mm | - | 408 W/m² | - |
| 1777766135 | 21.67° C | 50% | 1013.2 hPa | 0 mm | - | 441 W/m² | - |
| 1777765834 | 21.11° C | 50% | 1013.3 hPa | 0 mm | - | 483 W/m² | - |
| 1777765542 | 21.11° C | 51% | 1013.3 hPa | 0 mm | - | 520 W/m² | - |
| 1777765235 | 21.11° C | 51% | 1013.4 hPa | 0 mm | - | 552 W/m² | - |
| 1777764934 | 21.11° C | 52% | 1013.5 hPa | 0 mm | - | 568 W/m² | - |
| 1777764645 | 21.11° C | 53% | 1013.7 hPa | 0 mm | - | 582 W/m² | - |
| 1777764333 | 21.11° C | 52% | 1013.6 hPa | 0 mm | - | 594 W/m² | - |
| 1777764034 | 21.11° C | 51% | 1013.7 hPa | 0 mm | - | 608 W/m² | - |
| 1777763746 | 21.11° C | 51% | 1013.7 hPa | 0 mm | - | 619 W/m² | - |
| 1777763435 | 21.11° C | 51% | 1013.6 hPa | 0 mm | - | 631 W/m² | - |
* Rain latest hour (hover to see other rain measurements)
** Current wind speed in m/s (hover to see current wind gust speed)